Location: Brookview Estates
(36.0476°N, 86.6931°W)
Time: 08:58:33
(UTC+00:00)

ALOS - Pass Details

Date: 30 March 2020
Orbit: 683 x 685 km, 97.8° (Epoch: 24 May)

Event Time Altitude Azimuth Distance (km) Brightness Sun altitude
Rises 10:16:03 0° 21° (NNE) 3,057 6.2 -16.5°
Reaches altitude 10° 10:18:28 10° 30° (NNE) 2,137 5.5 -16.0°
Maximum altitude 10:22:47 37° 98° (E) 1,058 3.8 -15.2°
Drops below altitude 10° 10:27:06 10° 166° (SSE) 2,122 4.8 -14.3°
Sets 10:29:28 0° 174° (S) 3,033 5.5 -13.9°
